WB2COY Weather Reports


Display with metric or nautical units.
time (UTC)temp
F
wind
direction
speed
MPH
gust
MPH
rain 1hr
in
rain 24hr
in
rain mn
in
humidity
%
barometer
mb
20260904190017 85 45 1.0 3.0 0.00 0.41 0.41 39 1010.8
20260904183017 84 23 2.0 6.0 0.00 0.41 0.41 41 1011.2
20260904180037 83 23 1.0 5.0 0.00 0.41 0.41 45 1011.3
20260904173017 82 23 1.0 6.0 0.00 0.41 0.41 52 1011.3
20260904170017 80 0 1.0 4.0 0.00 0.41 0.41 53 1011.4
20260904163016 79 23 1.0 5.0 0.00 0.41 0.41 57 1011.5
20260904160017 79 0 1.0 5.0 0.00 0.41 0.41 60 1011.8
20260904153016 77 0 1.0 4.0 0.00 0.41 0.41 62 1012.2
20260904150016 76 23 1.0 3.0 0.00 0.41 0.41 70 1012.5
20260904143016 75 68 1.0 3.0 0.00 0.41 0.41 75 1012.4
20260904140016 75 68 1.0 4.0 0.00 0.41 0.41 76 1012.4
20260904133016 74 0 1.0 4.0 0.00 0.41 0.41 78 1012.3
20260904130016 73 0.0 2.0 0.00 0.41 0.41 82 1012.2
20260904123016 73 0.0 1.0 0.00 0.41 0.41 83 1012.1
20260904120016 71 0.0 1.0 0.00 0.41 0.41 84 1011.8
20260904113016 70 0.0 0.0 0.00 0.41 0.41 84 1011.8
20260904110017 70 0.0 0.0 0.00 0.41 0.41 84 1011.5
20260904103017 69 0.0 0.0 0.00 0.41 0.41 84 1011.2
20260904100016 70 0.0 1.0 0.00 0.41 0.41 84 1011.3
20260904093040 71 0.0 0.0 0.00 0.41 0.41 84 1011.0
20260904090016 71 0.0 0.0 0.00 0.41 0.41 84 1010.9
20260904083016 71 0.0 0.0 0.01 0.41 0.41 84 1010.4
20260904080016 71 0.0 1.0 0.12 0.43 0.41 84 1010.3
20260904073037 72 0.0 1.0 0.36 0.43 0.40 84 1010.5
20260904070017 72 0.0 1.0 0.29 0.33 0.29 84 1011.4
20260904063016 72 0.0 0.0 0.04 0.08 0.04 83 1011.4
20260904060035 72 0.0 0.0 0.00 0.04 0.00 83 1011.0
20260904053015 72 0.0 0.0 0.00 0.05 0.00 83 1011.4
20260904050015 72 0.0 0.0 0.00 0.09 0.00 83 1011.4
20260904043037 72 0.0 0.0 0.00 0.19 0.00 83 1011.5
20260904040016 72 0.0 0.0 0.00 0.35 0.35 82 1011.8
20260904033022 72 0.0 0.0 0.00 0.35 0.35 82 1011.8
20260904030016 73 0.0 0.0 0.00 0.35 0.35 81 1012.2
20260904023017 73 0.0 0.0 0.00 0.35 0.35 79 1012.2
20260904020021 74 0.0 0.0 0.00 0.35 0.35 79 1012.5
20260904013038 74 0.0 0.0 0.00 0.35 0.35 78 1012.2
20260904010058 75 0.0 0.0 0.00 0.35 0.35 77 1012.3
20260904003017 76 0.0 0.0 0.00 0.35 0.35 77 1012.1
20260904000020 77 0.0 0.0 0.00 0.35 0.35 76 1011.8
20260903233015 78 0.0 0.0 0.00 0.35 0.35 74 1011.5
20260903230015 80 0.0 0.0 0.00 0.35 0.35 71 1011.5
20260903223017 81 0.0 0.0 0.00 0.35 0.35 67 1011.6
20260903220016 82 0.0 0.0 0.00 0.35 0.35 68 1011.6
20260903213016 82 0.0 2.0 0.00 0.35 0.35 67 1011.8
20260903210015 83 0.0 2.0 0.00 0.35 0.35 63 1011.6
20260903203015 83 0.0 2.0 0.00 0.35 0.35 61 1011.8
20260903200015 83 0.0 2.0 0.00 0.35 0.35 64 1012.1
20260903193015 83 0.0 2.0 0.00 0.35 0.35 62 1012.1